User: anonymous   Login
Location: Seasalter
(51.3333°N, 1.0167°E)
Time: 04:42:17
(UTC+00:00)
Language:

ALOS - Orbit

View from above orbital plane
View from above orbital plane
View from above satellite
View from above satellite

Ground track
Ground track

The orbit data is extracted from the following two-line orbital elements,

1 28931U 06002A   24060.86922120  .00001710  00000-0  32649-3 0  9999
2 28931  98.0244  16.3741 0002236 103.5970 256.5482 14.65194423965485
Epoch (UTC): 29 February 2024 20:51:40
Eccentricity: 0.0002236
inclination: 98.0244°
perigee height: 675 km
apogee height: 678 km
right ascension of ascending node: 16.3741°
argument of perigee: 103.5970°
revolutions per day: 14.65194423
mean anomaly at epoch: 256.5482°
orbit number at epoch: 96548

The dashed part of the orbit path shows where the satellite is in the earth's shadow,  

DLR